Flag for Saudi Arabia Weather past 2 weeks in Turaif, Saudi Arabia

Now
45 °F

Sunny.


Feels Like: 43 °F
Forecast: 34 / 60 °F
Wind: 3 mph from Southeast

Location: Turaif

Current Time: Dec 29, 2014 at 9:48:31 AM

Latest Report: Dec 29, 2014 at 9:00 AM


Visibility: 6 mi

Pressure: 30.21 "Hg

Humidity: 100%

Dew point: 45 °F

Location of TuraifLocation

Historic Weather in Turaif — Graph

°F

Turaif temperature yesterday

Maximum temperature yesterday: 63 °F (at 3:00 PM)
Minimum temperature yesterday: 41 °F (at 4:00 AM)
Average temperature yesterday: 50 °F

Past Weeks' High & Low Weather Summary

 TemperatureHumidityPressure
High63 °F (Dec 28, 3:00 PM)100% (Dec 14, 8:00 AM)30.36 "Hg (Dec 14, 8:00 AM)
Low34 °F (Dec 25, 7:00 AM)44% (Dec 26, 1:00 PM)29.98 "Hg (Dec 23, 3:00 AM)
Average48 °F82%30.15 "Hg
* Reported Dec 14 8:00 AM — Dec 29 8:00 AM, Turaif, Weather by CustomWeather, © 2014

Note: Actual official high and low records may vary slightly from our data, if they occured in-between our weather recording intervals... More about our weather records

Advertising

Turaif weather history for previous 24 hours

 ConditionsComfort  
Time TempWeatherWind HumidityBarometerVisibility
8:00 AM
Dec 29
43 °FClear.5 mph100%30.21 "Hg6 mi
7:00 AM39 °FClear.7 mph100%30.21 "Hg5 mi
6:00 AM39 °FClear.7 mph100%30.18 "Hg6 mi
5:00 AM39 °FClear.7 mph100%30.18 "Hg6 mi
4:00 AM41 °FClear.9 mph100%30.18 "Hg10 mi
3:00 AM41 °FClear.7 mph100%30.18 "Hg10 mi
2:00 AM43 °FClear.7 mph93%30.21 "Hg10 mi
1:00 AM45 °FClear.7 mph93%30.21 "Hg10 mi
12:00 AM45 °FClear.7 mph87%30.21 "Hg10 mi
11:00 PM
Dec 28
46 °FClear.7 mph87%30.21 "Hg10 mi
10:00 PM48 °FClear.5 mph87%30.18 "Hg10 mi
9:00 PM50 °FClear.9 mph82%30.18 "Hg10 mi
8:00 PM54 °FPassing clouds.8 mph67%30.15 "HgN/A
7:00 PM54 °FPassing clouds.3 mph63%30.12 "HgN/A
6:00 PM55 °FScattered clouds.7 mph59%30.09 "HgN/A
5:00 PM61 °FPassing clouds.14 mph55%30.07 "HgN/A
4:00 PM63 °FScattered clouds.16 mph52%30.07 "HgN/A
3:00 PM63 °FSunny.10 mph52%30.07 "Hg10 mi
2:00 PM61 °FSunny.12 mph59%30.04 "Hg10 mi
1:00 PM61 °FPassing clouds.9 mph59%30.07 "HgN/A
12:00 PM57 °FPartly sunny.5 mph67%30.09 "HgN/A
11:00 AM55 °FPartly sunny.3 mph72%30.09 "HgN/A
10:00 AM52 °FPartly sunny.7 mph82%30.09 "HgN/A
9:00 AM48 °FScattered clouds.5 mph87%30.07 "HgN/A
Weather by CustomWeather, © 2014

See weather overviewHow to use our weather pages